www.pogodaiklimat.ru

Погода и климат >> Архив погоды >> Франция >> Ланьон


ПОГОДА в Ланьоне

  • Прогноз погоды в Ланьоне
  • Монитор погоды в Ланьоне

АРХИВ ПОГОДЫ в Ланьоне

Время (UTC), дата Ветер
(напр.,м/с)
 
Видим.   Явления Облачность Т
(С)
Тd
(С)
f
(%)
Тe
(С)
Тes
(С)
Комфортность P
(гПа)
Po
(гПа)
Тmin
(С)
Tmax
(С)
R
(мм)
R24
(мм)
S
(см)
10 14.08 Ю 4 55 км 10/10 540 м
[]
+17.0 +13.7 81 +17 +17 1014.3 1004.0
11 14.08 Ю 4 50 км 10/10 500 м
[]
+17.8 +14.5 81 +18 +18 1013.7 1003.5
12 14.08 Ю 4-7
{8}
60 км 10/10 300 м
[]
+18.8 +15.3 80 +20 +20 1013.6 1003.4 0
13 14.08 ЮЗ 3-5
{7}
40 км 10/10 500 м
[]
+19.8 +16.4 81 +22 +22 комфорт 1013.1 1003.0
14 14.08 ЮЗ 3 4500 м морось 10/10 300 м
[]
+19.1 +17.6 91 +21 +21 комфорт 1013.0 1002.8 0.0
15 14.08 З 4-6
{6}
2300 м слаб. дождь 10/10 100 м
[]
+18.1 +17.5 96 +18 +18 1013.2 1003.0 0.0 0
16 14.08 З 4 18 км 10/10 180 м
[]
+17.8 +17.2 96 +18 +18 1013.4 1003.2 0.0
17 14.08 З 4 19 км 10/10 360 м
[]
+17.9 +16.4 91 +18 +18 1013.5 1003.3
18 14.08 З 4
{11}
19 км 10/10 300 м
[]
+17.7 +16.0 90 +18 +18 1013.5 1003.3 +15.9 +20.0 0.0 0
19 14.08 З 4-6
{6}
19 км 10/10 270 м
[]
+17.2 +16.1 93 +17 +17 1013.9 1003.7 0.0
20 14.08 З 4 16 км 10/10 30 м
[]
+16.9 +15.9 94 +16 +16 1014.5 1004.2
21 14.08 З 4-5
{6}
14 км 10/10 100 м
[]
+16.7 +15.7 94 +16 +16 1015.0 1004.7 0.0 0
22 14.08 З 3 14 км 10/10 180 м
[]
+16.0 +15.2 95 +15 +15 1015.3 1005.0 0.0
23 14.08 З 3 14 км 10/10 240 м
[]
+16.0 +15.2 95 +15 +15 1015.8 1005.5 0.0
00 15.08 З 3
{10}
13 км 10/10 200 м
[]
+16.0 +14.9 93 +15 +15 1016.1 1005.8 0.0 0
01 15.08 З 3-5
{5}
11 км н/о +15.5 +14.4 93 +15 +15 1016.0 1005.7
02 15.08 З 3 11 км 10/10 330 м
[]
+15.5 +14.4 93 +15 +15 1016.2 1005.9
03 15.08 З 3-5
{5}
12 км 10/10 300 м
[]
+15.5 +14.4 93 +15 +15 1016.3 1006.0 0
04 15.08 З 3 12 км 10/10 270 м
[]
+15.9 +14.8 93 +15 +15 1016.4 1006.1
05 15.08 З 6
{12}
13 км 10/10 240 м
[]
+15.9 +14.9 94 +14 +14 1017.0 1006.7 0.0
06 15.08 З 4
{10}
14 км 10/10 1000 м
[]
+16.1 +15.0 93 +15 +15 1017.3 1007.0 +15.4 +17.7 0.0 0
07 15.08 З 4 16 км 10/10 1080 м
[]
+16.4 +14.9 91 +16 +16 1018.1 1007.8
08 15.08 З 4 19 км 10/10 800 м
[]
+16.6 +14.4 87 +16 +16 1018.6 1008.3
09 15.08 З 4-5
{6}
17 км 10/10 1000 м
[]
+16.8 +15.0 89 +16 +16 1019.0 1008.7 0
10 15.08 З 4 19 км 10/10 570 м
[]
+17.1 +14.7 86 +17 +17 1019.6 1009.3
11 15.08 З 4-5
{6}
40 км 10/10 1500 м
[]
+17.6 +14.5 82 +17 +17 1019.9 1009.6
12 15.08 З 4
{12}
19 км 10/10 300 м
[]
+18.9 +15.0 78 +20 +25 1020.1 1009.9 0
13 15.08 З 4 19 км 10/6 450 м
[]
+19.7 +16.0 79 +22 +24 комфорт 1020.2 1010.0
14 15.08 З 3 40 км 10/1 630 м
[]
+19.2 +15.1 77 +21 +25 комфорт 1020.5 1010.3
15 15.08 З 3
{10}
19 км н/о +19.5 +15.2 76 +22 +22 комфорт 1020.2 1010.0 0
16 15.08 З 3 19 км н/о +19.0 +14.9 77 +20 +20 1020.4 1010.2
17 15.08 З 3-4
{4}
40 км н/о +17.7 +14.4 81 +18 +18 1020.8 1010.5
18 15.08 З 2
{8}
40 км 10/10 1500 м
[]
+17.6 +14.5 82 +18 +18 1020.7 1010.4 +16.2 +19.7 0
19 15.08 З 2 50 км н/о +16.1 +13.8 86 +16 +16 1020.9 1010.5
20 15.08 З 1-2
{2}
45 км 9/9 1500 м
[]
+15.5 +13.9 90 +16 +16 1020.9 1010.5
21 15.08 З 2
{4}
35 км 10/10 600 м
[]
+16.2 +14.7 91 +16 +16 1021.1 1010.7 0
22 15.08 ЮЗ 1-2
{2}
45 км 10/10 1470 м
[]
+16.0 +14.4 90 +17 +17 1020.9 1010.5
23 15.08 Ю 1-2
{2}
45 км н/о +15.1 +13.5 90 +16 +16 1020.5 1010.1
00 16.08 Ю 1-2
{2}
35 км н/о +14.3 +13.2 93 +15 +15 1020.2 1009.8 0
01 16.08 Ю 1-2
{2}
17 км н/о +13.9 +13.1 95 +14 +14 1019.4 1009.0
02 16.08 Ю 2-2
{2}
17 км 9/9
[]
+13.3 +12.7 96 +13 +13 1019.2 1008.8
03 16.08 Ю 1
{6}
12 км 10/0
[]
+13.0 +12.4 96 +13 +13 1018.7 1008.2 0
04 16.08 Ю 1-2
{2}
14 км 9/9 1050 м
[]
+13.5 +12.9 96 +14 +14 1018.0 1007.6
05 16.08 ЮВ 2-3
{3}
14 км 10/10 1020 м
[]
+13.8 +13.2 96 +13 +13 1017.1 1006.7
06 16.08 Ю 1
{5}
13 км 10/10 1000 м
[]
+14.1 +13.5 96 +14 +14 1016.9 1006.5 +13.0 +17.6 0
07 16.08 Ю 2-4
{4}
19 км 10/10 1050 м
[]
+15.7 +14.4 92 +16 +16 1016.2 1005.9
08 16.08 Ю 3 45 км 10/10 630 м
[]
+17.1 +14.0 82 +17 +17 1015.8 1005.5
09 16.08 Ю 3
{11}
55 км 10/10 600 м
[]
+18.1 +13.8 76 +18 +18 1015.2 1005.0 0
10 16.08 Ю 4 50 км 10/10 800 м
[]
+18.2 +13.7 75 +18 +18 1014.5 1004.3
11 16.08 Ю 5 60 км 9/9 750 м
[]
+18.8 +14.1 74 +20 +20 1014.0 1003.8
12 16.08 Ю 4
{14}
55 км 10/10 600 м
[]
+19.5 +14.5 73 +21 +22 комфорт 1013.4 1003.2 0
13 16.08 Ю 4 50 км 10/10 800 м
[]
+18.9 +14.2 74 +20 +20 1012.6 1002.4
14 16.08 Ю 4 40 км 10/10 720 м
[]
+19.3 +14.3 73 +21 +21 комфорт 1012.4 1002.2
15 16.08 Ю 4
{15}
45 км 10/10 600 м
[]
+18.7 +14.6 77 +20 +20 1011.7 1001.5 0
16 16.08 Ю 4-6
{7}
55 км 10/10 540 м
[]
+18.2 +15.1 82 +18 +18 1011.0 1000.8 0.0
17 16.08 Ю 4 30 км слаб. дождь 10/10 420 м
[]
+17.4 +15.6 89 +17 +17 1010.1 999.9 0.0
18 16.08 Ю 3
{12}
18 км слаб. дождь 10/10 300 м
[]
+17.1 +16.0 93 +17 +17 1009.6 999.4 +14.1 +19.9 0.0 0
19 16.08 Ю 3 40 км 10/10 360 м
[]
+17.3 +16.2 93 +17 +17 1009.3 999.1 0.0
20 16.08 Ю 3-4
{5}
12 км 10/10 180 м
[]
+17.3 +16.7 96 +17 +17 1009.0 998.8 0.0
21 16.08 ЮЗ 3-6
{6}
55 км 10/10 200 м
[]
+17.9 +17.3 96 +18 +18 1008.9 998.7 0.0 0
22 16.08 ЮЗ 3-5
{6}
18 км 10/10 240 м
[]
+17.8 +16.8 94 +18 +18 1008.9 998.7 0.0
23 16.08 ЮЗ 3-5
{6}
19 км 10/10 240 м
[]
+17.9 +16.9 94 +18 +18 1008.5 998.3
00 17.08 ЮЗ 3-5
{5}
6000 м дождь 10/10 100 м
[]
+17.9 +17.1 95 +18 +18 1008.2 998.0 0.0 0
01 17.08 ЮЗ 3-5
{5}
45 км 10/10 180 м
[]
+18.0 +17.2 95 +18 +18 1008.0 997.9
02 17.08 ЮЗ 3-4
{5}
11 км 10/10 120 м
[]
+17.8 +17.2 96 +18 +18 1007.9 997.7 0.0
03 17.08 ЮЗ 3-4
{5}
3100 м слаб. морось 10/10 100 м
[]
+17.8 +17.3 97 +18 +18 1007.6 997.5 0.0 0
04 17.08 З 4-6
{6}
1900 м слаб. дождь 10/10 120 м
[]
+16.2 +15.6 96 +15 +15 1008.1 997.9 0.0
05 17.08 З 3 16 км 10/10 180 м
[]
+16.1 +15.6 97 +16 +16 1008.2 998.0 0.0
06 17.08 З 3
{9}
14 км 9/9 1000 м
[]
+16.1 +15.3 95 +16 +16 1008.4 998.2 +15.9 +18.1 0.0
07 17.08 ЮЗ 2 14 км 9/9
[]
+16.2 +15.2 94 +16 +17 1008.7 998.5
08 17.08 ЮЗ 2 16 км н/о +16.6 +15.3 92 +17 +17 1009.3 999.1
09 17.08 ЮЗ 2
{6}
17 км н/о +16.8 +15.1 90 +17 +17 1009.1 998.9 0
10 17.08 З 3 19 км 8/8 420 м
[]
+18.0 +15.6 86 +18 +20 1009.2 999.0
11 17.08 З 3 19 км н/о +18.0 +15.3 84 +18 +18 1009.7 999.5
12 17.08 З 2
{7}
18 км 9/9 600 м
[]
+18.5 +15.2 81 +20 +24 1009.4 999.2 0
13 17.08 З 3 19 км 10/5 600 м
[]
+17.8 +14.5 81 +18 +21 1009.8 999.6
14 17.08 З 2-3
{4}
18 км 9/9
[]
+18.6 +14.7 78 +20 +21 1009.5 999.3
15 17.08 З 2
{6}
17 км 9/9 600 м
[]
+18.3 +15.2 82 +19 +20 1009.3 999.1 0
16 17.08 З 2 18 км н/о +18.2 +15.3 83 +19 +19 1009.4 999.2
17 17.08 ЮЗ 2 45 км 8/1 660 м
[]
+17.6 +13.7 78 +18 +20 1009.1 998.9
18 17.08 Ю 2
{7}
19 км 8/8 600 м
[]
+17.4 +13.9 80 +18 +18 1008.8 998.6 +16.0 +18.9 0
19 17.08 ЮЗ 1 45 км 9/9 2000 м
[]
+16.6 +13.5 82 +17 +17 1008.5 998.3
20 17.08 Ю 1 14 км слаб. дождь 10/10 2000 м
[]
+16.1 +13.9 87 +17 +17 1007.6 997.4 0.0
21 17.08 Ю 1
{3}
5000 м слаб. дождь 10/10 300 м
[]
+15.6 +14.3 92 +16 +16 1008.0 997.8 0.0 0
22 17.08 ЮЗ 2 5000 м слаб. дождь 10/10 210 м
[]
+14.9 +14.1 95 +15 +15 1007.7 997.4 0.0
23 17.08 ЮВ 2 7000 м слаб. дождь 10/8 90 м
[]
+14.4 +13.8 96 +14 +14 1006.9 996.6 0.0
00 18.08 Ю 2
{6}
12 км слаб. дождь 10/10 100 м
[]
+14.3 +13.8 97 +14 +14 1006.0 995.7 0.0 0
01 18.08 ЮВ 2 19 км 10/10 1500 м
[]
+14.0 +13.5 97 +13 +13 1004.7 994.4 0.0
02 18.08 СЗ 3 60 км 10/4 180 м
[]
+14.4 +13.9 97 +13 +13 1004.4 994.2
03 18.08 СЗ 1
{9}
50 км 9/9 200 м
[]
+14.2 +13.6 96 +14 +14 1005.2 994.9 0.0 0
04 18.08 З 2 40 км 10/10 300 м
[]
+14.5 +14.0 97 +14 +14 1005.7 995.4
05 18.08 З 3 10 км 10/10 210 м
[]
+14.9 +14.4 97 +14 +14 1006.1 995.9
06 18.08 З 3
{9}
40 км 10/10 200 м
[]
+14.9 +14.1 95 +14 +14 1007.0 996.7 +13.4 +17.3 0
07 18.08 З 3 18 км 9/9 300 м
[]
+15.9 +14.8 93 +16 +16 1007.8 997.6
08 18.08 З 3 18 км н/о +16.6 +14.6 88 +16 +16 1008.6 998.4
09 18.08 З 4
{10}
18 км 10/10 600 м
[]
+17.1 +13.6 80 +17 +17 1009.4 999.2 0
10 18.08 З 4-6
{6}
30 км н/о +17.8 +13.7 77 +18 +18 1010.3 1000.1
11 18.08 З 4-6
{6}
19 км н/о +18.2 +13.3 73 +18 +18 1010.8 1000.6
12 18.08 З 5-7
{7}
19 км н/о +18.3 +12.3 68 +18 +18 1011.1 1000.9 0
13 18.08 З 5-7
{7}
19 км н/о +18.4 +11.7 65 +19 +19 1011.8 1001.6
14 18.08 З 5-7
{7}
19 км н/о +18.7 +11.0 61 +19 +19 1012.1 1001.9
15 18.08 З 5-7
{7}
19 км н/о +18.7 +12.2 66 +19 +19 1012.2 1002.0 0
16 18.08 З 5 19 км 8/6 870 м
[]
+18.0 +13.1 73 +18 +19 1012.7 1002.5
17 18.08 З 4-7
{8}
18 км н/о +17.6 +13.3 76 +17 +17 1012.9 1002.7
18 18.08 З 4
{14}
19 км н/о +16.4 +12.4 77 +16 +16 1013.3 1003.0 +14.8 +19.1 0
19 18.08 З 4-5
{6}
45 км н/о +15.7 +11.5 76 +15 +15 1013.7 1003.4
20 18.08 ЮЗ 3 19 км 10/10 2000 м
[]
+15.8 +12.2 79 +15 +15 1014.4 1004.1
21 18.08 ЮЗ 2
{7}
40 км 10/10 600 м
[]
+14.9 +12.4 85 +15 +15 1015.0 1004.7 0
22 18.08 ЮЗ 2 19 км 9/5 700 м
[]
+14.3 +12.3 88 +14 +14 1015.3 1004.9
23 18.08 ЮЗ 2-3
{4}
19 км н/о +13.8 +12.0 89 +13 +13 1015.7 1005.3
00 19.08 ЮЗ 2
{6}
18 км н/о +13.9 +12.3 90 +13 +13 1016.2 1005.8 0
01 19.08 ЮЗ 2-3
{3}
18 км н/о +13.3 +11.9 91 +13 +13 1016.0 1005.6
02 19.08 ЮЗ 2 17 км н/о +13.0 +11.7 92 +12 +12 1016.2 1005.8
03 19.08 ЮЗ 2-3
{3}
17 км н/о +12.8 +11.7 93 +12 +12 1016.2 1005.8 0
04 19.08 ЮЗ 2-2
{3}
17 км н/о +12.5 +11.4 93 +12 +12 1016.6 1006.1
05 19.08 ЮЗ 2 17 км 9/9 660 м
[]
+13.0 +11.9 93 +12 +12 1016.9 1006.5
06 19.08 ЮЗ 2
{5}
16 км н/о +13.0 +12.1 94 +12 +12 1017.5 1007.1 +12.5 +16.4 0
07 19.08 ЮЗ 2 18 км н/о +15.1 +13.3 89 +15 +15 1018.0 1007.6
08 19.08 ЮЗ 3-4
{4}
17 км н/о +15.9 +13.6 86 +16 +16 1018.1 1007.8 0.0
09 19.08 З 3
{9}
18 км 10/10 300 м
[]
+16.3 +13.0 81 +16 +18 1018.7 1008.4 0.0 0
10 19.08 З 3-5
{5}
50 км 9/9 2000 м
[]
+16.6 +12.5 77 +16 +17 1019.3 1009.0
11 19.08 З 3-5
{5}
19 км 8/8 2000 м
[]
+17.5 +12.2 71 +18 +20 1019.7 1009.4
12 19.08 З 3-5
{5}
19 км н/о +18.4 +12.4 68 +19 +19 1020.0 1009.7 0
13 19.08 З 4-6
{6}
19 км н/о +19.1 +10.9 59 +20 +20 1020.2 1009.9
14 19.08 З 4-5
{6}
22 км н/о +18.7 +11.5 63 +19 +19 1020.3 1010.0
15 19.08 З 4-5
{6}
19 км 8/0 2000 м
[]
+18.8 +12.5 67 +20 +21 1020.5 1010.2 0
16 19.08 З 3-5
{6}
25 км н/о +18.0 +11.5 66 +18 +18 1020.7 1010.4
17 19.08 З 4-6
{6}
60 км 8/8 2000 м
[]
+17.5 +11.3 67 +17 +18 1020.9 1010.6
18 19.08 З 3
{11}
60 км н/о +16.6 +12.1 75 +16 +16 1021.3 1010.9 +13.1 +19.6 0
19 19.08 З 2-3
{4}
45 км н/о +14.9 +12.0 83 +15 +15 1021.7 1011.3
20 19.08 З 2-3
{4}
45 км н/о +14.1 +12.3 89 +14 +14 1022.4 1011.9
21 19.08 З 2-3
{3}
40 км н/о +13.8 +12.4 91 +13 +13 1022.7 1012.2 0
22 19.08 ЮЗ 1-2
{3}
19 км н/о +12.9 +11.5 91 +13 +13 1022.9 1012.4
23 19.08 ЮЗ 1-2
{2}
40 км н/о +12.2 +11.1 93 +12 +12 1023.2 1012.7
00 20.08 ЮЗ 2-2
{3}
35 км н/о +12.1 +11.2 94 +11 +11 1023.3 1012.8 0
01 20.08 ЮЗ 1 18 км н/о +11.6 +10.8 95 +11 +11 1023.2 1012.6
02 20.08 З 1-2
{2}
16 км н/о +11.6 +11.0 96 +11 +11 1023.0 1012.4
03 20.08 Ю 1-1
{2}
17 км н/о +10.7 +10.2 97 +11 +11 1023.3 1012.7 0
04 20.08 Ю 1-1
{1}
14 км н/о +10.7 +10.2 97 +11 +11 1023.5 1012.9
05 20.08 Ю 1 15 км н/о +10.4 +9.9 97 +10 +10 1024.0 1013.4
06 20.08 Ю 1
{3}
15 км н/о +10.5 +10.0 97 +11 +11 1024.7 1014.1 +9.9 +16.6 0
07 20.08 ЮЗ 1-1
{2}
15 км н/о +12.8 +12.5 98 +14 +14 1025.2 1014.7
08 20.08 ЮЗ 2-2
{2}
18 км н/о +15.5 +14.5 94 +16 +16 1025.6 1015.2
09 20.08 З 2-3
{3}
18 км н/о +17.2 +13.1 77 +18 +18 1026.1 1015.7 0
10 20.08 З 2 30 км н/о +17.5 +12.8 74 +18 +18 1026.3 1015.9
11 20.08 З 2-3
{3}
19 км н/о +17.8 +11.8 68 +18 +18 1026.6 1016.2
12 20.08 З 2-3
{5}
19 км н/о +18.8 +11.1 61 +20 +20 1026.5 1016.2 0
13 20.08 СЗ 2-4
{4}
19 км н/о +18.4 +11.0 62 +19 +19 1026.8 1016.5
14 20.08 СЗ 2-4
{4}
19 км н/о +18.6 +11.2 62 +20 +20 1027.1 1016.8
15 20.08 СЗ 5-4
{8}
19 км н/о +18.0 +11.1 64 +18 +18 1027.2 1016.8 0
16 20.08 СЗ 5-4
{8}
35 км н/о +18.0 +10.8 63 +18 +18 1027.3 1016.9
17 20.08 СЗ 4-3
{6}
19 км н/о +17.3 +10.9 66 +17 +17 1027.5 1017.1
18 20.08 СЗ 2
{6}
50 км н/о +16.6 +11.3 71 +17 +17 1027.8 1017.4 +10.6 +19.1 0
19 20.08 СЗ 1-1
{2}
45 км н/о +15.4 +11.2 76 +17 +17 1028.2 1017.7
20 20.08 штиль 0-1
{1}
30 км н/о +12.8 +10.7 87 +12 +12 1028.7 1018.1
21 20.08 штиль 0
{1}
35 км н/о +11.1 +9.8 92 +10 +10 1028.9 1018.3 0
22 20.08 штиль 0
{1}
19 км н/о +10.6 +9.7 94 +10 +10 1029.1 1018.4
23 20.08 штиль 0-1
{1}
19 км н/о +10.0 +9.2 95 +9 +9 1029.1 1018.4
00 21.08 ЮВ 1-1
{1}
19 км н/о +10.0 +9.4 96 +10 +10 1028.7 1018.0 0
01 21.08 ЮВ 1-1
{2}
15 км н/о +9.4 +8.8 96 +10 +10 1028.4 1017.7
02 21.08 ЮВ 1-1
{2}
17 км н/о +8.9 +8.3 96 +9 +9 1028.2 1017.5
03 21.08 ЮВ 1-1
{1}
14 км н/о +8.3 +7.9 97 +8 +8 1028.2 1017.5 0
04 21.08 штиль 0-1
{1}
12 км 8/8
[]
+8.2 +7.8 97 +7 +7 1028.0 1017.3
05 21.08 ЮВ 1-1
{1}
17 км 10/10
[]
+8.3 +7.9 97 +8 +8 1028.1 1017.4
06 21.08 ЮВ 1
{2}
19 км н/о +8.7 +8.4 98 +9 +9 1028.2 1017.5 +8.0 +16.6 0
07 21.08 ЮВ 1-1
{1}
13 км н/о +10.6 +10.3 98 +11 +11 1028.6 1017.9
08 21.08 ЮВ 1-1
{1}
15 км н/о +13.3 +12.8 97 +14 +14 1028.2 1017.7

 

Местоположение метеостанции Ланьон (Франция): широта 48.75 долгота -3.47 высота над уровнем моря 91 м.

В архиве по умолчанию представлена погода в Ланьоне за последнюю неделю. Архивные данные за месяц целиком и за предыдущие месяцы, начиная с января 2011 года, Вы можете получить, выбрав интересующий диапазон дат из раскрывающегося списка и нажав кнопку "Ввод!".


*Определитесь, кто Вы:
робот инопланетянин человек

Внимание! Время в таблицах - всемирное. Для получения местного времени необходимо прибавить поправку, которая равна 1 ч.

Смотрите также архив погоды в соседних городах и на ближайших метеорологических станциях:

Погода в Перрос-Гиреке (Франция) (9 км)
Погода в Иль-де-Ба (Франция) (40 км)
Погода в Сен-Бриё аэропорту (Франция) (52 км)
Погода в Ландивизио (Франция) (56 км)
Погода в Бриньоган-Пляже (Франция) (64 км)
Погода в Бресте (Франция) (77 км)
Погода в Плудальмезо (Франция) (90 км)
Погода в Аэропорту Гернси (Великобритания) (99 км)
Погода в Кемпере (Франция) (101 км)
Погода в Динаре (Франция) (105 км)

Пояснения к столбцам:

Ветер - указаны скорость ветра в м/с - средняя за 10 мин, порывы в срок и между сроками (в фигурных скобках) и направление, откуда дует ветер: С - северный, СВ - северо-восточный, В - восточный, ЮВ - юго-восточный, Ю - южный, ЮЗ - юго-западный, З - западный, СЗ - северо-западный.
Видимость - горизонтальная дальность видимости в метрах или километрах. При видимости от 1 до 10 км при отсутствии осадков обычно наблюдается дымка, при ухудшении видимости до 1 км и менее - туман. В сухую погоду видимость может ухудшаться дымом, пылью или мглою.
Явления - указаны атмосферные явления, наблюдавшиеся в срок или в последний час перед сроком; фигурными скобками обозначены явления, наблюдавшиеся между сроками (за 1-3 часа до срока); квадратными скобками обозначены град или гололедные отложения с указанием их диаметра в мм.
Облачность - указаны через наклонную черту общая и нижняя облачность в баллах и высота нижней границы облаков в метрах; квадратными скобками обозначены формы облаков: Ci - перистые, Cs - перисто-слоистые, Cc - перисто-кучевые, Ac - высококучевые, As - высокослоистые, Sc - слоисто-кучевые, Ns - слоисто-дождевые, Cu - кучевые, Cb - кучево-дождевые. Подробнее классификацию облаков см. в Атласе облаков (PDF).
T - Температура воздуха - температура, измеренная на высоте 2 м над землей.
Td - Температура точки росы - температура, при понижении до которой содержащийся в воздухе водяной пар достигнет насыщения.
f - Относительная влажность воздуха - влажноcть воздуха, измеренная на высоте 2 м над землей.
Te - Эффективная температура - температура, которую ощущает одетый по сезону человек в тени. Характеристика душности погоды. При расчете учитывается влияние влажности воздуха и скорости ветра на теплоощущения человека.
Tes - Эффективная температура на солнце - температура, которую ощущает человек, с поправкой на солнечный нагрев. Характеристика знойности погоды. Зависит от высоты солнца над горизонтом, облачности и скорости ветра. Ночью, в пасмурную погоду, а также при ветре 12 м/с и более поправка равна нулю.
P - Атмосферное давление - приведенное к уровню моря атмосферное давление.
Po - Атмосферное давление - измеренное на уровне метеостанции атмосферное давление.
Tmin - Минимальная температура - минимум температуры воздуха на высоте 2 м над землей.
Tmax - Максимальная температура - максимум температуры воздуха на высоте 2 м над землей.
R - Количество осадков - Количество выпавших осадков за период времени, мм. При наведении курсора мыши на число - период времени, за который выпало указанное количество осадков.
R24 - Количество осадков - Количество выпавших осадков за 24 часа, мм.
S - Снежный покров - Высота снежного покрова, см. При наведении курсора мыши на число - состояние снежного покрова и степень покрытия местности в баллах.